Location: Monrovia
(34.7865°N, 86.7139°W)
Time: 15:19:58
(UTC+00:00)

Cosmos 1867 - Pass Details

Date: 14 July 2020
Orbit: 778 x 798 km, 65.0° (Epoch: 12 August)

Event Time Altitude Azimuth Distance (km) Brightness Sun altitude
Exits shadow 08:50:01 29° 183° (S) 1,400 4.4 -19.7°
Maximum altitude 08:52:38 60° 115° (ESE) 902 3.9 -19.3°
Drops below altitude 10° 08:57:59 10° 37° (NE) 2,365 7.3 -18.5°
Sets 09:00:26 0° 33° (NNE) 3,300 8.3 -18.2°
